DW2721 Weather Reports


Display with metric or nautical units.
time (UTC)temp
F
wind
direction
speed
MPH
gust
MPH
rain 1hr
in
rain 24hr
in
rain mn
in
humidity
%
barometer
mb
20260504185009 77 228 3.0 8.0 0.00 0.00 0.00 47 1017.3
20260504184008 76 212 2.0 9.0 0.00 0.00 0.00 42 1017.5
20260504183512 77 143 3.0 9.0 0.00 0.00 0.00 42 1017.6
20260504183026 77 239 2.0 6.0 0.00 0.00 0.00 43 1017.6
20260504182507 77 223 2.0 8.0 0.00 0.00 0.00 42 1017.8
20260504182011 77 110 1.0 8.0 0.00 0.00 0.00 45 1017.8
20260504181510 76 211 1.0 6.0 0.00 0.00 0.00 42 1017.9
20260504181005 76 226 2.0 6.0 0.00 0.00 0.00 43 1018.0
20260504180507 77 220 3.0 6.0 0.00 0.00 0.00 44 1018.0
20260504180016 76 130 1.0 7.0 0.00 0.00 0.00 45 1017.9
20260504175504 76 205 2.0 7.0 0.00 0.00 0.00 42 1017.9
20260504175006 77 169 3.0 5.0 0.00 0.00 0.00 42 1017.9
20260504174520 77 34 2.0 5.0 0.00 0.00 0.00 44 1017.9
20260504174012 76 207 1.0 6.0 0.00 0.00 0.00 42 1018.0
20260504173511 77 210 1.0 6.0 0.00 0.00 0.00 42 1018.2
20260504173022 76 199 2.0 4.0 0.00 0.00 0.00 42 1018.1
20260504172507 76 259 1.0 6.0 0.00 0.00 0.00 39 1018.1
20260504172009 76 278 1.0 8.0 0.00 0.00 0.00 39 1018.2
20260504171526 76 219 3.0 8.0 0.00 0.00 0.00 41 1018.0
20260504171014 76 96 1.0 7.0 0.00 0.00 0.00 45 1017.9
20260504170508 75 152 2.0 7.0 0.00 0.00 0.00 44 1017.9
20260504151008 74 177 0.0 3.0 0.00 0.00 0.00 54 1018.6
20260504150512 73 117 0.0 2.0 0.00 0.00 0.00 54 1018.8
20260504141000 68 236 0.0 2.0 0.00 0.00 0.00 67 1018.7
20260504140504 68 233 0.0 1.0 0.00 0.00 0.00 69 1018.7
20260504130508 57 211 0.0 0.0 0.00 0.00 0.00 97 1018.7
20260504110508 49 211 0.0 0.0 0.00 0.00 0.00 96 1017.9
20260504100504 50 211 0.0 0.0 0.00 0.00 0.00 95 1018.1
20260504081537 52 211 0.0 0.0 0.00 0.00 0.00 95 1018.0
20260504081008 52 211 0.0 0.0 0.00 0.00 0.00 95 1018.0
20260504080508 52 211 0.0 0.0 0.00 0.00 0.00 95 1018.1
20260504050504 54 211 0.0 0.0 0.00 0.00 0.00 94 1019.4
20260504050020 54 211 0.0 0.0 0.00 0.00 0.00 94 1019.5
20260504045505 54 211 0.0 0.0 0.00 0.00 0.00 94 1019.5
20260504045006 54 211 0.0 0.0 0.00 0.00 0.00 93 1019.5
20260504044523 55 211 0.0 0.0 0.00 0.00 0.00 93 1019.5
20260504044007 55 211 0.0 0.0 0.00 0.00 0.00 94 1019.5
20260504043503 55 211 0.0 0.0 0.00 0.00 0.00 94 1019.5
20260504043005 55 211 0.0 0.0 0.00 0.00 0.00 93 1019.5
20260504042504 55 211 0.0 0.0 0.00 0.00 0.00 93 1019.5
20260504042005 55 211 0.0 0.0 0.00 0.00 0.00 93 1019.6
20260504041509 55 211 0.0 0.0 0.00 0.00 0.00 93 1019.5
20260504041003 55 211 0.0 0.0 0.00 0.00 0.00 93 1019.6
20260504040505 55 211 0.0 0.0 0.00 0.00 0.00 93 1019.5
20260504040016 55 211 0.0 0.0 0.00 0.00 0.00 93 1019.6
20260504035503 55 211 0.0 0.0 0.00 0.00 0.00 93 1019.5
20260504035004 55 211 0.0 0.0 0.00 0.00 0.00 93 1019.6
20260504034522 55 211 0.0 0.0 0.00 0.00 0.00 92 1019.6
20260504034006 55 211 0.0 0.0 0.00 0.00 0.00 92 1019.5
20260504033506 56 211 0.0 0.0 0.00 0.00 0.00 92 1019.6
20260504033023 56 211 0.0 0.0 0.00 0.00 0.00 92 1019.6
20260504032506 56 211 0.0 0.0 0.00 0.00 0.00 92 1019.6
20260504032006 56 211 0.0 0.0 0.00 0.00 0.00 92 1019.6
20260504031506 56 211 0.0 0.0 0.00 0.00 0.00 92 1019.6
20260504031004 56 211 0.0 0.0 0.00 0.00 0.00 91 1019.6
20260504030505 56 211 0.0 0.0 0.00 0.00 0.00 91 1019.5
20260504030021 56 211 0.0 0.0 0.00 0.00 0.00 91 1019.5
20260504025504 56 211 0.0 1.0 0.00 0.00 0.00 91 1019.5
20260504025004 57 211 0.0 1.0 0.00 0.00 0.00 91 1019.5
20260504024517 57 212 0.0 0.0 0.00 0.00 0.00 90 1019.5
20260504024003 57 211 0.0 0.0 0.00 0.00 0.00 90 1019.4
20260504023508 57 211 0.0 0.0 0.00 0.00 0.00 90 1019.3
20260504023021 57 211 0.0 0.0 0.00 0.00 0.00 89 1019.3
20260504022507 57 211 0.0 0.0 0.00 0.00 0.00 89 1019.3
20260504022007 57 211 0.0 0.0 0.00 0.00 0.00 88 1019.2
20260504021522 58 211 0.0 0.0 0.00 0.00 0.00 88 1019.2
20260504021007 58 211 0.0 0.0 0.00 0.00 0.00 88 1019.1
20260504020508 58 211 0.0 0.0 0.00 0.00 0.00 87 1019.1
20260504020006 58 211 0.0 0.0 0.00 0.00 0.00 87 1019.1
20260504015503 58 211 0.0 0.0 0.00 0.00 0.00 86 1018.9
20260504015006 59 211 0.0 0.0 0.00 0.00 0.00 85 1018.9
20260504014517 59 211 0.0 0.0 0.00 0.00 0.00 85 1018.8
20260504014003 59 211 0.0 0.0 0.00 0.00 0.00 85 1018.8
20260504013504 60 211 0.0 0.0 0.00 0.00 0.00 84 1018.8
20260504013031 60 211 0.0 0.0 0.00 0.00 0.00 84 1018.8
20260504012504 60 211 0.0 0.0 0.00 0.00 0.00 83 1018.7
20260504012007 61 211 0.0 0.0 0.00 0.00 0.00 82 1018.6
20260504011523 61 211 0.0 0.0 0.00 0.00 0.00 81 1018.6
20260504011006 61 211 0.0 0.0 0.00 0.00 0.00 78 1018.5
20260504010507 62 211 0.0 0.0 0.00 0.00 0.00 79 1018.5
20260504010026 62 211 0.0 0.0 0.00 0.00 0.00 77 1018.5
20260504005510 63 211 0.0 0.0 0.00 0.00 0.00 75 1018.4
20260504005014 63 211 0.0 0.0 0.00 0.00 0.00 77 1018.5
20260504004510 64 211 0.0 0.0 0.00 0.00 0.00 77 1018.5
20260504004004 64 211 0.0 0.0 0.00 0.00 0.00 76 1018.5
20260504003504 65 211 0.0 0.0 0.00 0.00 0.00 75 1018.4
20260504003016 66 211 0.0 0.0 0.00 0.00 0.00 71 1018.5
20260504002508 66 211 0.0 0.0 0.00 0.00 0.00 71 1018.5
20260504002006 67 211 0.0 0.0 0.00 0.00 0.00 72 1018.5
20260504001519 68 211 0.0 0.0 0.00 0.00 0.00 70 1018.5
20260504001005 68 211 0.0 0.0 0.00 0.00 0.00 65 1018.4
20260504000506 69 211 0.0 0.0 0.00 0.00 0.00 66 1018.3
20260504000023 70 211 0.0 0.0 0.00 0.00 0.00 62 1018.3
20260503235507 70 211 0.0 0.0 0.00 0.00 0.00 60 1018.4
20260503235007 71 211 0.0 1.0 0.00 0.00 0.00 57 1018.4
20260503234527 72 211 0.0 1.0 0.00 0.00 0.00 49 1018.4
20260503234009 72 144 0.0 2.0 0.00 0.00 0.00 49 1018.4
20260503233509 72 117 0.0 3.0 0.00 0.00 0.00 49 1018.5
20260503233018 72 191 0.0 3.0 0.00 0.00 0.00 50 1018.6
20260503232502 73 181 0.0 1.0 0.00 0.00 0.00 47 1018.6
20260503232010 73 258 0.0 4.0 0.00 0.00 0.00 46 1018.5
20260503231519 73 89 0.0 4.0 0.00 0.00 0.00 48 1018.6
20260503231004 73 264 1.0 4.0 0.00 0.00 0.00 47 1018.6
20260503230509 73 212 0.0 3.0 0.00 0.00 0.00 48 1018.6
20260503230021 74 157 0.0 3.0 0.00 0.00 0.00 46 1018.6
20260503225506 74 134 0.0 2.0 0.00 0.00 0.00 46 1018.6
20260503225010 74 255 0.0 3.0 0.00 0.00 0.00 44 1018.7
20260503224525 74 243 0.0 4.0 0.00 0.00 0.00 43 1018.6
20260503224007 74 245 1.0 4.0 0.00 0.00 0.00 42 1018.7
20260503223507 74 242 0.0 1.0 0.00 0.00 0.00 43 1018.7
20260503223028 74 228 0.0 5.0 0.00 0.00 0.00 43 1018.7
20260503222510 74 227 1.0 5.0 0.00 0.00 0.00 43 1018.8
20260503222006 74 257 1.0 4.0 0.00 0.00 0.00 42 1018.8
20260503221514 74 262 1.0 4.0 0.00 0.00 0.00 41 1018.9
20260503221011 75 238 0.0 5.0 0.00 0.00 0.00 42 1018.9
20260503220503 75 230 1.0 5.0 0.00 0.00 0.00 41 1019.0
20260503220019 74 229 1.0 5.0 0.00 0.00 0.00 43 1019.0
20260503215508 74 242 2.0 4.0 0.00 0.00 0.00 43 1018.9
20260503215010 75 227 0.0 3.0 0.00 0.00 0.00 42 1018.9
20260503214522 75 234 1.0 2.0 0.00 0.00 0.00 45 1019.2
20260503214007 75 221 0.0 3.0 0.00 0.00 0.00 42 1019.3
20260503213508 75 231 2.0 3.0 0.00 0.00 0.00 40 1019.4
20260503213027 76 248 0.0 4.0 0.00 0.00 0.00 41 1019.4
20260503212510 76 257 1.0 5.0 0.00 0.00 0.00 42 1019.4
20260503212010 75 252 1.0 5.0 0.00 0.00 0.00 42 1019.4
20260503211528 75 238 1.0 5.0 0.00 0.00 0.00 41 1019.5
20260503211007 75 235 1.0 5.0 0.00 0.00 0.00 42 1019.6
20260503210503 76 145 1.0 4.0 0.00 0.00 0.00 42 1019.7
20260503210015 76 240 1.0 3.0 0.00 0.00 0.00 39 1019.8
20260503205503 76 250 0.0 6.0 0.00 0.00 0.00 43 1020.0
20260503205003 75 219 1.0 6.0 0.00 0.00 0.00 40 1020.0
20260503204520 75 250 0.0 5.0 0.00 0.00 0.00 39 1020.0
20260503204006 75 237 1.0 5.0 0.00 0.00 0.00 42 1020.0
20260503203507 75 137 1.0 5.0 0.00 0.00 0.00 42 1020.1
20260503203042 75 250 2.0 6.0 0.00 0.00 0.00 41 1020.2
20260503202508 75 256 2.0 6.0 0.00 0.00 0.00 40 1020.2
20260503202009 75 243 1.0 4.0 0.00 0.00 0.00 43 1020.4
20260503201531 75 294 1.0 4.0 0.00 0.00 0.00 41 1020.5
20260503201010 76 129 1.0 4.0 0.00 0.00 0.00 42 1020.6
20260503200508 75 194 1.0 5.0 0.00 0.00 0.00 40 1020.7
20260503200027 75 104 2.0 6.0 0.00 0.00 0.00 40 1020.9
20260503195509 75 206 2.0 7.0 0.00 0.00 0.00 40 1020.9
20260503195003 76 91 3.0 7.0 0.00 0.00 0.00 38 1021.1
20260503194531 76 224 1.0 3.0 0.00 0.00 0.00 36 1021.1
20260503194006 77 242 1.0 3.0 0.00 0.00 0.00 35 1021.2
20260503193505 76 242 1.0 3.0 0.00 0.00 0.00 34 1021.3
20260503193022 76 49 1.0 4.0 0.00 0.00 0.00 35 1021.4
20260503192508 76 237 1.0 4.0 0.00 0.00 0.00 40 1021.4
20260503192007 76 237 0.0 4.0 0.00 0.00 0.00 36 1021.4
20260503191524 77 45 0.0 2.0 0.00 0.00 0.00 36 1021.4
20260503191008 77 281 0.0 5.0 0.00 0.00 0.00 38 1021.5
20260503190508 76 131 0.0 5.0 0.00 0.00 0.00 36 1021.6
20260503190035 76 91 1.0 5.0 0.00 0.00 0.00 35 1021.6
20260503185513 76 233 2.0 5.0 0.00 0.00 0.00 32 1021.7